Grafton, ND

5:55 PM CDT on June 26, 2017 (GMT -0500)
Grafton Municipal

Weather History for KGAF - October, 2013

Change the Weather History Date:

Thursday, October 17, 2013

  Actual Average Record
Temperature  
Mean Temperature 40 °F -  
Max Temperature 48 °F 53 °F 79 °F (1963)
Min Temperature 33 °F 31 °F 3 °F (1952)
Degree Days  
Heating Degree Days 24    
Moisture  
Dew Point 33 °F    
Average Humidity 70    
Maximum Humidity 87    
Minimum Humidity 43    
Precipitation  
Precipitation 0.00 in - - ()
Sea Level Pressure  
Sea Level Pressure 29.92 in    
Wind  
Wind Speed 13 mph (NW)    
Max Wind Speed 18 mph    
Max Gust Speed 25 mph    
Visibility 10 miles    
Events Rain    
Averages and records for this station are not official NWS values.
T = Trace of Precipitation, MM = Missing Value Source: NWS Daily Summary

Daily Weather History Graph

Daily Weather History Graph

Search for Another Location

Airport or City:

Trip Planner

Search our weather history database for the weather conditions in past years. The results will help you decide how hot, cold, wet, or windy it might be!

Date:

Astronomy

Oct. 17, 2013 Rise Set
Actual Time 7:52 AM CDT 6:35 PM CDT
Civil Twilight 7:21 AM CDT 7:07 PM CDT
Nautical Twilight 6:44 AM CDT 7:43 PM CDT
Astronomical Twilight 6:08 AM CDT 8:20 PM CDT
Moon 5:53 PM CDT (10/17) 6:21 AM CDT (10/17)
Length of Visible Light 11h 46m
Length of Day
10h 43m
Waxing Gibbous, 98% of the Moon is Illuminated
Oct 17
Waxing Gibbous
Oct 18
Full
Oct 26
Last Quarter
Nov 3
New
Nov 9
First Quarter

Hourly Weather History & Observations

Time (CDT) Temp. Windchill Dew Point Humidity Pressure Visibility Wind Dir Wind Speed Gust Speed Precip Events Conditions
12:15 AM 46.4 °F 40.4 °F 41.0 °F 81% 29.83 in 10.0 mi NNW 13.8 mph 19.6 mph N/A   Scattered Clouds
12:35 AM 46.4 °F 39.8 °F 41.0 °F 81% 29.83 in 10.0 mi North 16.1 mph 20.7 mph N/A   Mostly Cloudy
12:55 AM 44.6 °F 37.8 °F 41.0 °F 87% 29.83 in 10.0 mi NNW 15.0 mph - N/A   Mostly Cloudy
1:15 AM 44.6 °F 37.4 °F 41.0 °F 87% 29.84 in 10.0 mi NNW 16.1 mph 21.9 mph N/A   Mostly Cloudy
1:35 AM 44.6 °F 37.4 °F 41.0 °F 87% 29.84 in 10.0 mi NNW 16.1 mph 21.9 mph N/A   Mostly Cloudy
1:55 AM 44.6 °F 37.4 °F 41.0 °F 87% 29.85 in 10.0 mi NNW 16.1 mph 21.9 mph N/A   Mostly Cloudy
2:15 AM 44.6 °F 37.4 °F 39.2 °F 81% 29.86 in 10.0 mi NNW 16.1 mph 20.7 mph N/A   Mostly Cloudy
2:35 AM 44.6 °F 37.4 °F 37.4 °F 76% 29.86 in 10.0 mi North 16.1 mph 21.9 mph N/A   Overcast
2:55 AM 42.8 °F 36.2 °F 35.6 °F 76% 29.87 in 10.0 mi NNW 12.7 mph - N/A   Overcast
3:15 AM 42.8 °F 35.4 °F 33.8 °F 70% 29.87 in 10.0 mi NNW 15.0 mph - N/A   Overcast
3:35 AM 42.8 °F 35.4 °F 33.8 °F 70% 29.87 in 10.0 mi NNW 15.0 mph - N/A   Overcast
3:55 AM 41.0 °F 33.5 °F 33.8 °F 76% 29.88 in 10.0 mi North 13.8 mph - N/A   Mostly Cloudy
4:15 AM 41.0 °F 33.1 °F 32.0 °F 70% 29.88 in 10.0 mi NNW 15.0 mph - N/A   Overcast
4:35 AM 41.0 °F 32.8 °F 32.0 °F 70% 29.88 in 10.0 mi North 16.1 mph 21.9 mph N/A   Overcast
4:55 AM 41.0 °F 33.5 °F 32.0 °F 70% 29.88 in 10.0 mi North 13.8 mph - N/A   Mostly Cloudy
5:15 AM 41.0 °F 33.9 °F 32.0 °F 70% 29.89 in 10.0 mi North 12.7 mph - N/A   Mostly Cloudy
5:35 AM 41.0 °F 33.9 °F 32.0 °F 70% 29.90 in 10.0 mi NNW 12.7 mph - N/A   Mostly Cloudy
5:55 AM 41.0 °F 33.5 °F 32.0 °F 70% 29.90 in 10.0 mi NNW 13.8 mph - N/A   Mostly Cloudy
6:15 AM 39.2 °F 31.2 °F 32.0 °F 75% 29.90 in 10.0 mi North 13.8 mph - N/A   Overcast
6:35 AM 41.0 °F 33.9 °F 32.0 °F 70% 29.91 in 10.0 mi NNW 12.7 mph - N/A   Overcast
6:55 AM 41.0 °F 34.3 °F 33.8 °F 76% 29.91 in 10.0 mi NNW 11.5 mph - N/A   Overcast
7:15 AM 39.2 °F 32.5 °F 35.6 °F 87% 29.92 in 10.0 mi NNW 10.4 mph - N/A   Mostly Cloudy
7:35 AM 39.2 °F 33.0 °F 35.6 °F 87% 29.92 in 10.0 mi NNW 9.2 mph - N/A   Mostly Cloudy
7:55 AM 39.2 °F 32.5 °F 35.6 °F 87% 29.93 in 10.0 mi NNW 10.4 mph - N/A   Overcast
8:15 AM 39.2 °F 31.6 °F 33.8 °F 81% 29.94 in 10.0 mi NNW 12.7 mph 16.1 mph N/A   Mostly Cloudy
8:55 AM 39.2 °F 32.0 °F 33.8 °F 81% 29.94 in 10.0 mi NNW 11.5 mph - N/A   Mostly Cloudy
9:15 AM 39.2 °F 32.0 °F 33.8 °F 81% 29.95 in 10.0 mi NNW 11.5 mph - N/A   Overcast
9:35 AM 41.0 °F 33.5 °F 33.8 °F 76% 29.95 in 10.0 mi NNW 13.8 mph 17.3 mph N/A   Overcast
9:55 AM 41.0 °F 32.8 °F 33.8 °F 76% 29.95 in 10.0 mi NNW 16.1 mph 20.7 mph N/A   Overcast
10:15 AM 42.8 °F 34.8 °F 33.8 °F 70% 29.96 in 10.0 mi NNW 17.3 mph 24.2 mph N/A   Overcast
10:35 AM 41.0 °F - 35.6 °F 81% 29.96 in 9.0 mi North - - N/A Rain Light Rain
10:55 AM 42.8 °F 35.1 °F 35.6 °F 76% 29.96 in 10.0 mi NNW 16.1 mph 21.9 mph N/A   Overcast
11:15 AM 44.6 °F 37.8 °F 35.6 °F 71% 29.96 in 8.0 mi NNW 15.0 mph 25.3 mph N/A   Mostly Cloudy
11:35 AM 42.8 °F 34.8 °F 33.8 °F 70% 29.96 in 10.0 mi NNW 17.3 mph 23.0 mph N/A   Overcast
11:55 AM 44.6 °F 37.4 °F 33.8 °F 66% 29.96 in 10.0 mi NNW 16.1 mph - N/A   Overcast
12:15 PM 44.6 °F 37.8 °F 32.0 °F 61% 29.96 in 10.0 mi North 15.0 mph - N/A   Overcast
12:35 PM 44.6 °F 38.1 °F 32.0 °F 61% 29.96 in 10.0 mi NNW 13.8 mph 21.9 mph N/A   Mostly Cloudy
12:55 PM 46.4 °F 39.8 °F 28.4 °F 50% 29.96 in 10.0 mi North 16.1 mph - N/A   Scattered Clouds
1:15 PM 46.4 °F 39.2 °F 32.0 °F 57% 29.95 in 10.0 mi North 18.4 mph 21.9 mph N/A   Mostly Cloudy
1:35 PM 46.4 °F 40.4 °F 28.4 °F 50% 29.94 in 10.0 mi North 13.8 mph 18.4 mph N/A   Mostly Cloudy
1:55 PM 46.4 °F 39.5 °F 32.0 °F 57% 29.94 in 10.0 mi NNW 17.3 mph 24.2 mph N/A   Scattered Clouds
2:15 PM 46.4 °F 40.7 °F 28.4 °F 50% 29.94 in 10.0 mi NW 12.7 mph 20.7 mph N/A   Partly Cloudy
2:35 PM 46.4 °F 40.1 °F 28.4 °F 50% 29.94 in 10.0 mi NNW 15.0 mph 21.9 mph N/A   Scattered Clouds
2:55 PM 46.4 °F 40.1 °F 28.4 °F 50% 29.94 in 10.0 mi NW 15.0 mph 20.7 mph N/A   Scattered Clouds
3:15 PM 46.4 °F 41.5 °F 28.4 °F 50% 29.94 in 10.0 mi NNW 10.4 mph - N/A   Partly Cloudy
3:35 PM 46.4 °F 41.5 °F 26.6 °F 46% 29.94 in 10.0 mi NNW 10.4 mph 17.3 mph N/A   Partly Cloudy
3:55 PM 48.2 °F - 26.6 °F 43% 29.94 in 10.0 mi NNW 12.7 mph 18.4 mph N/A   Scattered Clouds
4:15 PM 46.4 °F 41.1 °F 26.6 °F 46% 29.94 in 10.0 mi NNW 11.5 mph - N/A   Mostly Cloudy
4:35 PM 48.2 °F - 26.6 °F 43% 29.93 in 10.0 mi North 12.7 mph 18.4 mph N/A   Partly Cloudy
4:55 PM 48.2 °F - 28.4 °F 46% 29.93 in 10.0 mi North 9.2 mph - N/A   Clear
5:15 PM 46.4 °F 42.4 °F 28.4 °F 50% 29.93 in 10.0 mi North 8.1 mph - N/A   Mostly Cloudy
5:35 PM 46.4 °F 42.9 °F 28.4 °F 50% 29.93 in 10.0 mi NNW 6.9 mph - N/A   Mostly Cloudy
5:55 PM 46.4 °F 42.9 °F 28.4 °F 50% 29.94 in 10.0 mi North 6.9 mph - N/A   Mostly Cloudy
6:15 PM 44.6 °F 42.2 °F 28.4 °F 53% 29.94 in 10.0 mi NNW 4.6 mph - N/A   Mostly Cloudy
6:35 PM 42.8 °F - 28.4 °F 57% 29.94 in 10.0 mi Calm Calm - N/A   Scattered Clouds
6:55 PM 42.8 °F - 30.2 °F 61% 29.94 in 10.0 mi Calm Calm - N/A   Clear
7:15 PM 44.6 °F 43.1 °F 32.0 °F 61% 29.94 in 10.0 mi WNW 3.5 mph - N/A   Clear
7:35 PM 39.2 °F - 32.0 °F 75% 29.94 in 10.0 mi Calm Calm - N/A   Clear
7:55 PM 37.4 °F 32.8 °F 30.2 °F 75% 29.94 in 10.0 mi WSW 5.8 mph - N/A   Clear
8:15 PM 37.4 °F 32.8 °F 32.0 °F 81% 29.94 in 10.0 mi WSW 5.8 mph - N/A   Clear
8:35 PM 37.4 °F 32.1 °F 32.0 °F 81% 29.94 in 9.0 mi WSW 6.9 mph - N/A   Clear
8:55 PM 37.4 °F 32.1 °F 32.0 °F 81% 29.94 in 10.0 mi WSW 6.9 mph - N/A   Clear
9:15 PM 37.4 °F 32.1 °F 32.0 °F 81% 29.94 in 10.0 mi West 6.9 mph - N/A   Clear
9:35 PM 35.6 °F 30.7 °F 32.0 °F 87% 29.94 in 10.0 mi West 5.8 mph - N/A   Clear
9:55 PM 35.6 °F 31.7 °F 32.0 °F 87% 29.94 in 10.0 mi West 4.6 mph - N/A   Clear
10:15 PM 33.8 °F 28.6 °F 30.2 °F 87% 29.94 in 10.0 mi WSW 5.8 mph - N/A   Clear
10:35 PM 35.6 °F 29.2 °F 30.2 °F 81% 29.94 in 10.0 mi West 8.1 mph - N/A   Partly Cloudy
10:55 PM 35.6 °F 29.9 °F 32.0 °F 87% 29.94 in 10.0 mi West 6.9 mph - N/A   Mostly Cloudy
11:15 PM 35.6 °F 29.2 °F 32.0 °F 87% 29.93 in 10.0 mi West 8.1 mph - N/A   Mostly Cloudy
11:35 PM 37.4 °F 32.1 °F 32.0 °F 81% 29.93 in 10.0 mi West 6.9 mph - N/A   Overcast
11:55 PM 35.6 °F 29.9 °F 32.0 °F 87% 29.93 in 10.0 mi WSW 6.9 mph - N/A   Overcast